User: anonymous   Login
Location: USNO
(38.9242°N, 77.0663°W)
Time: 19:29:41
(UTC-05:00)
Language:

Hubble Space Telescope - Orbit

View from above orbital plane
View from above orbital plane
View from above satellite
View from above satellite

Ground track
Ground track

The orbit data is extracted from the following two-line orbital elements,

1 20580U 90037B   17343.95558743 +.00000506 +00000-0 +20101-4 0  9997
2 20580 028.4700 285.9423 0002470 262.6569 151.6789 15.08940830316779
Epoch (UTC): 09 December 2017 22:56:02
Eccentricity: 0.0002470
inclination: 28.4700°
perigee height: 538 km
apogee height: 541 km
right ascension of ascending node: 285.9423°
argument of perigee: 262.6569°
revolutions per day: 15.08940830
mean anomaly at epoch: 151.6789°
orbit number at epoch: 31677

The dashed part of the orbit path shows where the satellite is in the earth's shadow,  

DLR